This demonstration page uses our WeatherBlox Daily Observations layout. Learn more.

Left ArrowRight Arrow

39.92423, -83.80882

Hourly Observations for January 2, 2018

Temp ( °F °C ) Dew Point ( °F °C ) Humidity (%) Winds ( mph kmh ) Pressure ( in mb ) Visibility ( mi km ) Precip ( " mm )
12:56 am 00:56 Cloudy with Light Snow -4 -20 -11 -23.9 71 71 W 8 13 30.72 1040 9 14.48406 0 0.0254
1:56 am 01:56 Cloudy with Light Snow -4 -20 -11 -23.9 71 71 WSW 7 11 30.71 1040 9 14.48406 0 0.0254
2:56 am 02:56 Cloudy with Light Snow -6 -21.1 -12 -24.4 75 75 WSW 6 9 30.72 1040 9 14.48406 0 0.0254
3:44 am 03:44 Partly Cloudy -9 -23 -15 -26 77 77 WSW 8 13 30.8 1043 10 16.0934 0 0.0254
3:56 am 03:56 Clear -10 -23.3 -15 -26.1 78 78 WSW 8 13 30.72 1040 10 16.0934 0 0.0254
4:56 am 04:56 Clear -12 -24.4 -17 -27.2 78 78 WSW 5 7 30.72 1040 10 16.0934 0 0
5:56 am 05:56 Clear -13 -25 -18 -27.8 78 78 WSW 3 6 30.71 1040 10 16.0934 0 0
6:56 am 06:56 Clear -14 -25.6 -19 -28.3 78 78 SW 6 9 30.72 1040 10 16.0934 0 0
7:56 am 07:56 Clear -14 -25.6 -19 -28.3 78 78 SW 7 11 30.73 1041 10 16.0934 0 0
8:56 am 08:56 Sunny -7 -21.7 -12 -24.4 79 79 SW 6 9 30.73 1041 10 16.0934 0 0
9:56 am 09:56 Sunny -2 -18.9 -10 -23.3 68 68 WSW 9 15 30.72 1040 10 16.0934 0 0
10:05 am 10:05 Sunny with Light Snow 0 -18 -9 -23 65 65 WSW 10 17 30.77 1042 1.25 2.011675 0 0.0254
10:15 am 10:15 Sunny with Light Snow 0 -18 -9 -23 65 65 WSW 9 15 30.77 1042 7 11.26538 0 0.0254
10:56 am 10:56 Sunny 3 -16.1 -7 -21.7 62 62 WSW 9 15 30.7 1040 9 14.48406 0 0.0254
11:56 am 11:56 Sunny 9 -12.8 -5 -20.6 52 52 WSW 8 13 30.67 1039 10 16.0934 0 0
12:56 pm 12:56 Sunny 13 -10.6 -2 -18.9 51 51 SW 8 13 30.62 1037 10 16.0934 0 0
1:56 pm 13:56 Sunny 13 -10.6 -2 -18.9 51 51 SW 8 13 30.58 1036 10 16.0934 0 0
2:56 pm 14:56 Sunny 14 -10 -1 -18.3 51 51 WSW 8 13 30.56 1035 10 16.0934 0 0
3:56 pm 15:56 Sunny 12 -11.1 -1 -18.3 56 56 SW 10 17 30.56 1035 10 16.0934 0 0
4:56 pm 16:56 Sunny 10 -12.2 -2 -18.9 58 58 SW 7 11 30.53 1034 10 16.0934 0 0
6:56 pm 18:56 Clear 2 -16.7 -5 -20.6 72 72 SW 5 7 30.51 1033 10 16.0934 0 0
9:56 pm 21:56 Clear 0 -17.8 -5 -20.6 79 79 SW 7 11 30.43 1031 10 16.0934 0 0
10:56 pm 22:56 Clear -2 -18.9 -7 -21.7 79 79 SSW 7 11 30.4 1030 10 16.0934 0 0
11:56 pm 23:56 Clear 2 -16.7 -3 -19.4 80 80 SSW 7 11 30.36 1028 10 16.0934 0 0

Powered by AerisWeather